Wind_Speed
65 69 70 68 70 68 69 70 69 68 73 75 77 75 76 77 75 77 78 76 79 84 88 90 92 92 94 96 98 101 101 103 99 95 93 97 98 98 111 120 124 126 128 119
68 71 73 74 71 76 78 78 79 75 77 78 76 74 73 75 76 82 83 83 87 91 94 98 99 100 100 101 104 104 102 104 104 100 100 100 100 103 107 113 115 111 116 111
66 71 72 78 75 79 82 85 79 79 81 78 82 84 82 79 81 86 89 94 98 99 103 106 108 108 106 106 106 108 106 103 104 106 108 105 103 102 105 112 117 121 120 121
80 76 77 77 78 76 82 84 84 87 85 82 84 87 85 86 90 91 95 101 106 108 110 115 113 110 111 108 107 106 108 107 107 108 107 105 103 108 112 115 118 122 115 123
75 74 74 77 81 80 86 89 87 88 93 91 87 88 89 94 97 102 107 113 114 115 119 121 121 120 116 112 108 110 115 110 106 105 108 110 107 108 111 113 114 115 117 116
72 81 79 84 89 85 89 90 94 97 91 93 94 95 96 101 108 114 116 119 123 125 125 119 110 109 106 104 102 104 108 106 106 106 111 109 100 107 107 105 104 108 110 110
77 78 81 84 85 87 88 91 94 94 96 96 100 104 107 112 119 122 125 127 117 101 95 93 89 87 87 87 90 93 94 96 96 94 96 93 93 92 97 99 101 103 103 105
80 83 85 84 85 84 91 94 96 98 103 108 113 112 113 117 123 125 112 100 92 86 80 77 79 79 73 71 69 72 76 81 86 87 88 87 88 92 95 98 96 103 110 114
86 86 89 91 90 94 98 101 103 107 109 115 117 118 119 109 92 82 76 74 68 64 65 65 62 63 63 63 64 68 74 79 85 89 93 92 89 92 97 103 103 111 116 122
93 96 99 100 101 103 104 106 107 112 113 113 104 90 79 69 64 61 60 58 59 58 58 59 62 64 68 70 72 75 79 82 84 88 92 92 96 102 105 109 114 117 122 126
92 94 97 97 97 99 99 98 93 85 81 76 68 64 59 59 58 56 56 57 58 59 62 64 67 68 70 72 72 75 78 83 87 91 97 101 105 110 113 115 117 120 120 117
60 64 66 67 67 66 64 65 64 62 59 56 54 53 53 54 55 56 58 60 61 63 65 66 65 65 68 73 77 82 86 91 93 99 103 108 108 112 113 112 112 109 105 102
45 46 48 49 49 50 50 49 49 50 51 51 50 51 53 55 56 57 58 59 59 60 63 68 71 74 77 82 85 89 92 96 98 101 107 108 111 108 105 101 98 95 92 90
38 40 41 43 44 45 45 46 48 49 50 51 50 52 51 52 54 57 59 62 66 68 71 75 79 82 85 89 92 95 97 99 100 103 104 104 103 98 93 92 90 87 84 80
34 36 37 37 39 40 41 42 45 47 49 49 52 53 56 58 60 63 66 69 73 76 79 83 86 89 91 95 96 97 99 99 99 100 97 93 90 87 84 85 83 79 75 73
32 34 36 38 39 41 45 49 49 50 52 55 58 60 63 66 69 72 74 77 79 82 86 89 91 91 93 95 97 97 98 96 91 87 83 80 80 81 78 77 75 72 68 65
43 44 46 47 49 51 53 55 58 60 62 64 67 69 71 73 75 77 81 84 86 87 87 88 91 93 94 95 95 91 87 83 77 73 73 77 74 74 72 68 67 66 63 57
54 55 56 57 59 60 62 64 65 67 69 70 73 75 77 78 80 81 81 82 84 86 88 89 89 89 90 87 81 76 73 73 71 69 67 67 69 70 69 66 64 65 62 60
61 62 64 65 66 67 68 69 71 72 73 74 75 75 76 76 78 80 83 84 84 84 84 83 81 76 73 71 70 70 69 70 71 68 66 65 64 65 63 60 59 58 59 57
62 63 64 66 66 66 67 68 70 70 71 72 74 75 77 76 76 77 77 78 79 76 71 67 65 65 65 66 66 67 66 65 65 67 67 65 64 61 61 57 54 51 51 52
60 60 61 61 61 62 63 64 64 65 66 67 69 70 71 72 71 70 67 64 60 59 59 61 61 62 62 62 62 62 61 61 60 60 59 58 57 58 59 60 58 54 51 49
52 53 53 52 52 53 54 55 58 60 62 62 61 60 59 57 55 52 51 52 52 54 55 56 57 57 56 56 57 59 59 58 57 57 57 58 57 55 57 57 57 56 54 50
46 45 45 45 45 47 48 48 47 46 46 46 44 43 43 44 45 46 47 48 49 50 51 51 51 52 53 54 54 54 54 55 56 57 56 56 57 56 52 53 54 53 53 49
38 37 38 38 39 40 39 39 39 39 39 38 38 39 39 41 41 42 42 43 44 45 46 46 46 47 48 50 52 54 56 55 55 54 54 53 52 52 51 47 47 48 49 49
30 29 30 31 32 33 33 34 34 33 33 33 33 34 35 35 35 36 38 40 40 39 39 41 43 46 49 50 51 51 51 50 50 50 50 50 49 49 50 47 44 44 44 45
25 25 27 28 27 27 26 27 28 28 29 28 27 27 29 30 31 31 31 32 35 40 42 43 45 46 46 47 47 47 48 48 47 47 46 48 47 47 46 46 43 41 39 39
22 23 25 23 23 23 21 21 20 22 23 23 23 22 24 27 31 33 34 36 39 41 44 43 41 42 43 45 44 44 44 44 44 44 44 45 45 46 44 42 43 41 38 35
Wind_Direction
260 258 259 263 265 266 269 270 270 271 272 275 279 277 276 277 279 280 282 285 288 289 289 289 290 290 291 291 291 290 291 290 289 286 282 278 275 277 276 276 276 275 277 278
264 261 262 268 267 267 268 269 272 275 280 282 276 273 275 280 284 285 285 286 287 288 289 289 289 290 290 290 289 289 288 286 284 283 283 279 278 279 277 278 278 278 278 281
260 263 264 263 265 267 269 271 272 278 280 283 276 274 275 279 283 286 286 287 288 287 287 289 289 290 290 289 286 284 284 282 281 282 283 283 280 281 282 280 280 280 282 283
260 259 261 268 270 268 272 272 274 279 281 281 279 278 279 287 285 283 283 285 286 287 288 289 289 287 286 285 282 279 279 279 279 280 280 282 282 282 283 285 282 283 286 287
263 261 263 270 272 273 275 274 277 277 278 281 279 281 284 285 283 282 283 283 284 285 286 285 285 285 283 282 278 276 276 278 278 278 279 281 281 283 284 284 286 287 288 289
264 263 265 267 268 269 270 272 275 279 279 280 280 282 282 282 282 283 284 285 286 286 285 284 283 282 281 279 278 277 276 278 278 278 278 281 284 283 287 287 287 290 288 287
263 263 267 267 268 269 271 273 272 276 279 280 279 281 280 282 284 284 286 288 287 285 283 282 281 281 280 280 279 280 282 282 283 282 282 285 286 286 286 287 288 288 289 288
262 264 267 268 270 271 272 275 275 274 275 277 278 279 281 282 283 285 286 285 286 286 285 283 284 287 289 288 285 282 282 282 283 284 285 286 289 290 292 290 289 290 289 289
260 263 265 267 267 268 269 269 273 275 276 278 279 281 282 283 282 283 285 287 286 285 286 288 289 286 283 283 284 287 287 288 288 289 289 290 291 289 288 288 289 288 288 287
259 261 263 266 267 268 270 272 274 275 278 279 281 281 281 281 281 280 282 285 287 288 289 289 289 289 289 289 289 288 288 289 291 290 290 291 291 289 288 289 288 287 287 287
265 265 267 269 270 271 273 274 275 276 276 277 276 277 278 278 280 283 286 287 287 288 289 289 289 288 289 290 290 291 291 291 290 291 292 291 290 290 290 290 291 290 290 291
266 266 266 267 268 269 269 269 270 272 273 276 277 280 281 282 284 285 287 288 289 290 290 290 291 292 292 294 293 292 292 293 294 292 293 291 292 291 292 293 293 294 294 294
269 268 268 269 270 269 268 270 273 275 278 279 280 282 284 285 285 287 288 288 290 292 292 292 293 293 293 293 293 293 293 293 294 294 294 296 294 295 296 297 297 297 297 297
274 272 271 271 272 273 274 275 277 276 275 278 281 283 286 286 289 289 289 291 291 291 291 292 292 293 294 294 294 294 294 294 295 297 297 297 296 298 300 301 301 301 300 299
283 280 278 277 280 282 282 283 283 281 280 282 283 283 283 284 286 288 290 291 291 292 292 293 294 294 295 295 295 296 296 297 298 298 298 298 299 301 303 303 303 304 303 303
285 283 281 280 281 280 277 277 279 280 283 285 285 286 287 288 289 290 290 291 291 292 292 293 294 294 296 298 298 298 298 298 299 299 300 300 301 301 303 304 305 304 304 305
278 278 278 278 278 278 279 278 281 284 285 285 286 286 287 287 288 289 290 290 290 291 293 296 296 297 297 297 297 298 298 299 300 301 301 300 300 302 305 306 306 306 306 306
283 283 283 283 283 283 285 284 285 285 286 286 286 286 287 288 288 288 290 293 295 296 295 295 295 296 296 297 298 299 300 301 301 301 300 300 301 304 305 307 309 309 309 310
283 283 284 284 284 285 285 285 285 285 285 285 286 287 288 290 292 293 293 292 293 293 294 295 296 296 296 298 299 300 301 301 302 302 302 302 302 302 303 305 306 306 308 310
285 285 284 284 284 284 284 285 286 287 288 290 289 290 290 290 290 291 292 292 293 294 295 295 296 297 299 299 300 299 300 301 302 304 305 306 306 305 305 305 305 306 306 308
284 284 284 284 284 284 285 285 286 287 288 288 288 289 290 291 291 292 293 293 294 295 296 297 299 299 299 299 300 300 301 303 303 303 304 304 304 307 311 312 313 313 312 312
284 285 286 287 287 288 289 290 291 291 290 290 290 290 291 292 292 293 295 296 297 297 298 299 299 300 301 303 304 304 303 305 309 310 310 310 311 311 310 311 311 312 313 314
288 288 290 291 292 292 292 292 292 293 293 294 294 295 295 295 296 297 298 300 300 300 300 302 305 304 303 303 304 309 313 312 311 310 309 310 310 311 310 309 310 309 309 312
289 290 291 291 292 292 292 294 296 297 298 298 298 298 299 300 302 302 302 304 305 306 305 304 306 309 313 316 317 315 314 313 312 313 315 315 314 313 312 311 309 308 308 310
293 294 294 296 298 299 299 299 300 302 303 303 304 305 306 307 309 309 308 306 304 305 310 315 318 321 321 319 317 316 316 317 318 319 318 317 317 316 315 315 314 313 311 312
296 298 303 307 306 308 308 310 313 313 310 308 311 316 315 310 307 304 310 319 324 330 329 327 323 321 319 319 319 320 322 322 322 321 320 319 319 317 317 317 317 316 314 311
306 312 315 319 321 320 319 320 323 327 329 321 319 320 333 339 344 343 341 336 331 329 329 328 327 325 325 324 324 324 324 324 324 324 324 322 321 321 321 318 316 317 316 314
Height
10523 10524 10523 10524 10526 10521 10521 10521 10522 10524 10519 10518 10517 10516 10510 10506 10503 10497 10494 10494 10490 10487 10483 10479 10475 10471 10463 10460 10453 10444 10439 10431 10431 10428 10423 10414 10408 10399 10394 10385 10378 10372 10365 10392
10505 10505 10504 10505 10506 10501 10500 10500 10502 10505 10501 10501 10496 10494 10490 10485 10482 10474 10471 10469 10468 10463 10456 10448 10450 10447 10440 10432 10424 10417 10413 10405 10401 10400 10392 10387 10382 10375 10363 10353 10349 10350 10332 10351
10485 10486 10486 10484 10487 10482 10477 10477 10482 10483 10480 10479 10472 10468 10470 10466 10461 10454 10447 10442 10441 10437 10431 10424 10420 10417 10412 10405 10395 10389 10381 10380 10375 10367 10359 10357 10355 10347 10336 10324 10320 10310 10315 10308
10466 10466 10466 10465 10468 10464 10457 10457 10460 10458 10460 10457 10448 10441 10444 10443 10432 10429 10425 10422 10417 10409 10402 10395 10392 10388 10382 10378 10368 10363 10353 10353 10346 10340 10333 10326 10326 10320 10310 10299 10288 10269 10289 10262
10445 10446 10446 10445 10445 10446 10437 10435 10434 10431 10431 10428 10423 10421 10424 10414 10409 10406 10403 10394 10390 10387 10375 10366 10361 10356 10349 10346 10341 10333 10325 10322 10317 10314 10303 10295 10300 10292 10281 10269 10260 10247 10238 10236
10423 10426 10425 10421 10424 10424 10417 10414 10413 10402 10408 10402 10398 10396 10393 10387 10381 10374 10370 10364 10355 10348 10341 10333 10328 10322 10316 10311 10308 10301 10296 10291 10285 10286 10274 10269 10276 10264 10253 10243 10231 10220 10210 10200
10404 10404 10404 10400 10404 10398 10396 10391 10385 10383 10377 10376 10372 10369 10369 10362 10347 10342 10337 10328 10319 10313 10306 10300 10296 10293 10287 10283 10277 10273 10270 10261 10253 10254 10245 10245 10240 10237 10224 10213 10205 10192 10180 10168
10383 10382 10380 10376 10377 10384 10371 10366 10364 10363 10356 10351 10346 10345 10340 10333 10323 10313 10301 10296 10291 10285 10280 10276 10272 10270 10267 10264 10260 10251 10243 10234 10225 10221 10217 10217 10215 10204 10193 10179 10181 10163 10146 10134
10359 10359 10354 10353 10360 10355 10349 10344 10342 10336 10331 10324 10318 10314 10311 10304 10298 10292 10285 10279 10273 10267 10261 10256 10253 10250 10247 10244 10239 10232 10222 10213 10204 10195 10187 10188 10188 10175 10162 10150 10150 10132 10116 10100
10334 10332 10329 10330 10331 10328 10327 10322 10318 10310 10303 10297 10292 10288 10283 10279 10274 10269 10263 10258 10253 10248 10244 10240 10235 10231 10225 10219 10215 10209 10200 10192 10184 10172 10161 10161 10152 10138 10131 10121 10108 10098 10082 10065
10305 10306 10305 10305 10305 10303 10301 10297 10291 10284 10277 10274 10270 10267 10262 10259 10255 10250 10245 10240 10235 10231 10225 10221 10215 10213 10206 10199 10193 10185 10178 10170 10162 10152 10139 10129 10117 10105 10092 10084 10073 10055 10039 10026
10282 10283 10282 10282 10280 10278 10276 10272 10268 10264 10260 10255 10253 10249 10245 10241 10238 10233 10229 10224 10219 10214 10208 10203 10198 10191 10186 10179 10171 10160 10153 10144 10138 10122 10109 10092 10085 10069 10060 10051 10034 10016 10002 9988
10266 10265 10265 10264 10263 10260 10259 10256 10253 10249 10243 10240 10238 10233 10230 10226 10222 10218 10213 10208 10203 10198 10192 10185 10178 10171 10166 10155 10147 10138 10129 10118 10109 10095 10075 10064 10045 10038 10027 10012 9999 9985 9972 9959
10253 10252 10251 10250 10248 10246 10243 10241 10238 10234 10230 10225 10223 10220 10216 10211 10207 10202 10197 10191 10185 10180 10173 10165 10158 10150 10142 10129 10120 10111 10100 10089 10079 10061 10048 10035 10015 10009 9998 9981 9969 9957 9944 9933
10243 10241 10240 10238 10236 10234 10231 10228 10226 10223 10218 10214 10210 10207 10202 10197 10192 10186 10180 10173 10166 10159 10151 10143 10133 10125 10116 10103 10092 10081 10068 10058 10048 10035 10022 10007 9993 9980 9974 9958 9944 9932 9922 9909
10233 10232 10230 10228 10225 10223 10220 10218 10214 10210 10206 10200 10195 10191 10185 10179 10173 10167 10160 10152 10144 10137 10128 10119 10109 10099 10088 10076 10063 10052 10040 10029 10020 10009 9996 9984 9973 9960 9953 9940 9926 9913 9903 9892
10223 10221 10218 10215 10211 10209 10205 10201 10197 10192 10188 10182 10177 10171 10165 10159 10152 10145 10137 10130 10121 10113 10103 10093 10083 10072 10062 10050 10038 10028 10015 10004 9995 9989 9978 9959 9953 9942 9929 9922 9909 9893 9884 9877
10208 10204 10201 10198 10194 10191 10186 10182 10177 10172 10167 10162 10155 10149 10144 10137 10130 10122 10114 10104 10095 10086 10077 10068 10059 10049 10037 10025 10014 10005 9995 9983 9975 9968 9960 9948 9933 9920 9910 9900 9891 9874 9865 9856
10188 10185 10181 10178 10174 10170 10165 10160 10155 10149 10145 10139 10133 10127 10119 10112 10104 10097 10089 10081 10073 10064 10054 10045 10035 10026 10015 10005 9995 9986 9977 9966 9953 9944 9938 9927 9919 9906 9896 9887 9876 9865 9851 9842
10167 10164 10160 10156 10152 10148 10144 10137 10132 10127 10121 10115 10109 10102 10095 10090 10082 10074 10069 10059 10051 10042 10034 10025 10017 10007 9998 9988 9979 9969 9960 9951 9940 9927 9916 9906 9896 9889 9878 9870 9861 9852 9841 9830
10146 10142 10139 10135 10131 10128 10122 10117 10112 10107 10100 10095 10088 10082 10076 10068 10062 10055 10048 10040 10033 10025 10016 10007 9999 9991 9982 9973 9964 9955 9945 9935 9926 9914 9904 9893 9884 9870 9856 9844 9836 9830 9824 9816
10127 10124 10121 10118 10114 10109 10105 10099 10093 10088 10082 10076 10070 10064 10057 10052 10045 10039 10032 10025 10018 10010 10002 9994 9985 9977 9968 9958 9949 9939 9928 9917 9905 9896 9885 9874 9865 9857 9846 9835 9824 9814 9806 9800
10113 10110 10107 10103 10100 10095 10089 10084 10078 10072 10066 10061 10056 10050 10045 10039 10033 10026 10018 10011 10004 9997 9989 9980 9972 9963 9954 9944 9933 9921 9912 9901 9892 9881 9871 9862 9850 9840 9834 9823 9813 9803 9793 9788
10101 10099 10095 10092 10086 10082 10076 10071 10066 10061 10056 10051 10046 10040 10034 10027 10021 10015 10008 10001 9993 9985 9978 9969 9959 9948 9939 9929 9919 9909 9898 9887 9877 9867 9856 9846 9836 9826 9816 9810 9801 9791 9780 9773
10091 10088 10084 10080 10077 10072 10067 10062 10057 10053 10048 10042 10037 10031 10025 10019 10012 10006 9999 9992 9983 9975 9965 9956 9946 9936 9926 9917 9907 9897 9886 9876 9864 9854 9844 9833 9824 9814 9803 9795 9788 9779 9770 9762
10083 10080 10077 10073 10069 10065 10060 10054 10050 10045 10040 10035 10030 10024 10018 10012 10005 9998 9990 9981 9971 9963 9954 9946 9936 9926 9917 9907 9897 9886 9875 9865 9855 9844 9833 9823 9813 9804 9794 9783 9775 9767 9760 9752
10078 10074 10071 10066 10063 10059 10055 10050 10045 10040 10036 10031 10026 10019 10013 10005 9997 9989 9982 9974 9965 9955 9946 9937 9930 9920 9908 9896 9887 9877 9866 9856 9845 9835 9824 9813 9802 9792 9783 9773 9763 9757 9750 9743